Regional Weather Roundup
Issued by NWS State College, PA

Home | Current Version | Previous Version | Text Only | Print | Product List | Glossary On
Versions: 1 2 3 4 5 6 7 8 9 10 11 12 13 14 15 16 17 18 19 20 21 22 23 24 25 26 27 28 29 30 31 32 33 34 35 36 37 38 39 40 41 42 43 44 45 46 47 48 49 50
463
ASUS41 KCTP 201603
RWRCTP
REGIONAL WEATHER ROUNDUP
NATIONAL WEATHER SERVICE STATE COLLEGE PA
1200 PM EDT WED SEP 20 2017

Note: "fair" indicates few or no clouds below 12,000 feet with no
significant weather and/or obstructions to visibility.

* = STATION THAT DOES NOT REPORT PRECIPITATION /E.G. RAIN...SNOW...ETC/
    THUNDER OR FOG.

PAZ002>004-007>009-013>016-020>023-029>032-201700-
WESTERN PENNSYLVANIA

CITY           SKY/WX    TMP DP  RH WIND       PRES   REMARKS
ERIE           SUNNY     76  64  66 NW6       30.04S
MEADVILLE      SUNNY     78  63  59 SW5       30.07S
FRANKLIN*        N/A    N/A N/A N/A MISG        N/A
NEW CASTLE     FAIR      78  65  63 CALM      30.06F
BEAVER COUNTY  MOSUNNY   79  63  57 CALM      30.06S
BUTLER*        MOSUNNY   76  63  64 CALM      30.07S
PITTSBURGH INT MOSUNNY   79  63  57 CALM      30.05S
PITTSBURGH     SUNNY     76  61  59 CALM      30.05S
INDIANA*       SUNNY     75  63  64 CALM      30.09S
LATROBE        SUNNY     75  64  69 CALM      30.07S
WASHINGTON CO* SUNNY     79  64  61 CALM      30.05F
$$

PAZ004>006-010>012-017>019-024>028-033>037-041-042-045-046-049>053-201700-
CENTRAL PENNSYLVANIA

CITY           SKY/WX    TMP DP  RH WIND       PRES   REMARKS
BRADFORD       SUNNY     75  59  57 VRB6      30.09S
DUBOIS         SUNNY     76  57  51 VRB6      30.07S
CLEARFIELD     SUNNY     73  60  63 SW5       30.06F
JOHNSTOWN      SUNNY     74  56  53 W7        30.09S
ALTOONA        SUNNY     76  60  57 MISG      30.06F
STATE COLLEGE  SUNNY     72  63  73 CALM      30.04F
WILLIAMSPORT   SUNNY     76  62  62 W10       29.99F
SELINSGROVE    SUNNY     79  65  62 NW7       29.99F
FT INDIANTOWN  MOSUNNY   80  63  56 N6        29.97S
CAPITAL CITY   SUNNY     80  61  52 NW8       29.98S
HARRISBURG     SUNNY     79  65  62 W12       29.96F
YORK           SUNNY     79  65  62 NW9       29.98F
$$

PAZ038>040-043-044-047-048-054-055-060>062-067>071-201700-
EASTERN PENNSYLVANIA

CITY           SKY/WX    TMP DP  RH WIND       PRES   REMARKS
SCRANTON       SUNNY     79  60  52 N8        29.99S
MOUNT POCONO   SUNNY     76  60  57 N12       30.01S
ALLENTOWN      SUNNY     82  65  56 N9        29.93F
QUAKERTOWN*    SUNNY     79  66  65 N9G17     29.95S
READING        SUNNY     81  67  62 NW9       29.94S
LANCASTER      SUNNY     81  67  62 N12       29.96S
COATESVILLE    CLOUDY    79  66  65 N9        29.96F
POTTSTOWN      SUNNY     79  65  62 N8        29.95
BLUE BELL      SUNNY     77  64  65 N6        29.93F
DOYLESTOWN     SUNNY     79  65  62 N14G21    29.92S
WILLOW GROVE   NOT AVBL
NORTH PHILA    SUNNY     81  66  60 N13       29.92S
PHILADELPHIA   MOSUNNY   81  65  58 N15G22    29.90F
$$




USA.gov is the U.S. government's official web portal to all federal, state and local government web resources and services.